date,City,No. Stations,Air Quality,Index Value,Prominent Pollutant
2018-09-21,Hubballi,1.0,Satisfactory,79,PM10
2018-09-23,Hubballi,1.0,Satisfactory,79,PM10
2018-09-24,Hubballi,1.0,Satisfactory,82,PM10
2018-09-25,Hubballi,1.0,Satisfactory,87,PM10
2018-09-26,Hubballi,1.0,Satisfactory,57,PM10
2018-09-27,Hubballi,1.0,Satisfactory,64,PM10
2018-09-28,Hubballi,1.0,Satisfactory,82,PM10
2018-09-30,Hubballi,1.0,Satisfactory,79,PM10
2018-10-01,Hubballi,1.0,Satisfactory,75,PM10
2018-10-02,Hubballi,1.0,Satisfactory,71,PM10
2018-10-03,Hubballi,1.0,Satisfactory,82,PM10
2018-10-04,Hubballi,1.0,Satisfactory,78,PM10
2018-10-05,Hubballi,1.0,Satisfactory,71,PM10
2018-10-06,Hubballi,1.0,Satisfactory,66,PM10
2018-10-07,Hubballi,1.0,Satisfactory,64,PM10
2018-10-08,Hubballi,1.0,Moderate,108,PM2.5
2018-10-09,Hubballi,1.0,Satisfactory,78,PM10
2018-10-10,Hubballi,1.0,Satisfactory,98,PM10
2018-10-11,Hubballi,1.0,Moderate,112,PM10
2018-10-12,Hubballi,1.0,Moderate,119,PM10
2018-10-13,Hubballi,1.0,Moderate,118,PM2.5
2018-10-14,Hubballi,1.0,Moderate,117,PM2.5
2018-10-15,Hubballi,1.0,Moderate,107,PM10
2018-10-16,Hubballi,1.0,Moderate,114,PM2.5
2018-10-17,Hubballi,1.0,Good,42,PM2.5
2018-10-18,Hubballi,1.0,Satisfactory,58,PM10
2018-10-19,Hubballi,1.0,Good,48,PM10
2018-10-20,Hubballi,1.0,Satisfactory,68,PM10
2018-10-21,Hubballi,1.0,Moderate,118,PM10
2018-10-22,Hubballi,1.0,Moderate,105,PM10
2018-10-23,Hubballi,1.0,Moderate,127,PM10
2018-10-24,Hubballi,1.0,Moderate,107,PM10
2018-10-25,Hubballi,1.0,Moderate,121,PM10
2018-10-26,Hubballi,1.0,Moderate,104,PM10
2018-10-28,Hubballi,1.0,Satisfactory,85,PM10
2018-10-29,Hubballi,1.0,Satisfactory,90,PM10
2018-10-30,Hubballi,1.0,Very Poor,314,PM2.5
2018-11-15,Hubballi,1.0,Moderate,114,PM10
2018-11-16,Hubballi,1.0,Satisfactory,84,PM10
2018-11-28,Hubballi,1.0,Moderate,101,PM10
2018-11-29,Hubballi,1.0,Satisfactory,86,PM10
2018-11-30,Hubballi,1.0,Satisfactory,83,PM10
2018-12-01,Hubballi,1.0,Satisfactory,92,PM10
2018-12-02,Hubballi,1.0,Satisfactory,91,PM10
2018-12-03,Hubballi,1.0,Satisfactory,70,PM10
2018-12-04,Hubballi,1.0,Satisfactory,85,PM10
2018-12-05,Hubballi,1.0,Satisfactory,77,PM10
2018-12-06,Hubballi,1.0,Satisfactory,55,PM10
2018-12-07,Hubballi,1.0,Satisfactory,98,PM10
2018-12-08,Hubballi,1.0,Satisfactory,93,PM10
2018-12-09,Hubballi,1.0,Moderate,116,PM2.5
2018-12-10,Hubballi,1.0,Moderate,112,PM2.5
2018-12-11,Hubballi,1.0,Satisfactory,95,PM10
2018-12-12,Hubballi,1.0,Moderate,125,PM10
2018-12-13,Hubballi,1.0,Moderate,103,PM10
2018-12-14,Hubballi,1.0,Moderate,115,PM10
2018-12-15,Hubballi,1.0,Moderate,110,PM2.5
2018-12-16,Hubballi,1.0,Moderate,123,PM2.5
2018-12-17,Hubballi,1.0,Moderate,130,PM2.5
2018-12-18,Hubballi,1.0,Moderate,106,PM2.5
2018-12-19,Hubballi,1.0,Good,35,PM10
2018-12-20,Hubballi,1.0,Satisfactory,57,PM10
2018-12-21,Hubballi,1.0,Satisfactory,83,PM10
2018-12-22,Hubballi,1.0,Moderate,104,PM10
2018-12-23,Hubballi,1.0,Satisfactory,89,PM10
2018-12-24,Hubballi,1.0,Satisfactory,83,PM10
2018-12-26,Hubballi,1.0,Moderate,137,PM2.5
2018-12-27,Hubballi,1.0,Moderate,127,PM2.5
2018-12-28,Hubballi,1.0,Satisfactory,97,PM10
2018-12-29,Hubballi,1.0,Satisfactory,98,PM10
2018-12-30,Hubballi,1.0,Satisfactory,97,PM10
2018-12-31,Hubballi,1.0,Satisfactory,92,PM10
2019-01-01,Hubballi,1.0,Moderate,102,PM10
2019-01-02,Hubballi,1.0,Satisfactory,93,PM10
2019-01-03,Hubballi,1.0,Satisfactory,89,PM10
2019-01-04,Hubballi,1.0,Satisfactory,88,PM10
2019-01-05,Hubballi,1.0,Moderate,101,PM10
2019-01-08,Hubballi,1.0,Moderate,108,PM10
2019-01-09,Hubballi,1.0,Moderate,125,PM2.5
2019-01-10,Hubballi,1.0,Moderate,121,PM10
2019-01-11,Hubballi,1.0,Moderate,160,PM2.5
2019-01-12,Hubballi,1.0,Moderate,176,PM2.5
2019-01-13,Hubballi,1.0,Moderate,149,PM2.5
2019-01-14,Hubballi,1.0,Moderate,124,PM10
2019-01-15,Hubballi,1.0,Satisfactory,93,PM10
2019-01-16,Hubballi,1.0,Moderate,106,PM10
2019-01-17,Hubballi,1.0,Moderate,137,PM2.5
2019-01-18,Hubballi,1.0,Moderate,111,PM10
2019-01-19,Hubballi,1.0,Moderate,102,PM10
2019-01-20,Hubballi,1.0,Satisfactory,99,PM10
2019-01-21,Hubballi,1.0,Satisfactory,96,PM10
2019-01-22,Hubballi,1.0,Moderate,125,PM2.5
2019-01-23,Hubballi,1.0,Moderate,123,PM2.5
2019-01-24,Hubballi,1.0,Moderate,103,PM10
2019-01-25,Hubballi,1.0,Moderate,118,PM10
2019-01-26,Hubballi,1.0,Moderate,116,PM10
2019-01-27,Hubballi,1.0,Moderate,129,PM2.5
2019-01-28,Hubballi,1.0,Satisfactory,83,PM2.5
2019-01-29,Hubballi,1.0,Satisfactory,65,PM10
2019-01-30,Hubballi,1.0,Satisfactory,78,PM10
2019-01-31,Hubballi,1.0,Moderate,108,PM10
2019-02-01,Hubballi,1.0,Moderate,101,PM10
2019-02-03,Hubballi,1.0,Moderate,106,PM10
2019-02-16,Hubballi,1.0,Satisfactory,86,PM10
2019-02-17,Hubballi,1.0,Moderate,107,PM10
2019-02-18,Hubballi,1.0,Moderate,116,PM2.5
2019-02-19,Hubballi,1.0,Moderate,129,PM2.5
2019-02-20,Hubballi,1.0,Moderate,113,PM10
2019-02-21,Hubballi,1.0,Moderate,109,PM10
2019-02-22,Hubballi,1.0,Moderate,108,PM10
2019-02-23,Hubballi,1.0,Satisfactory,86,PM10
2019-02-24,Hubballi,1.0,Moderate,116,PM10
2019-02-25,Hubballi,1.0,Satisfactory,91,PM10
2019-02-26,Hubballi,1.0,Moderate,111,PM10
2019-02-28,Hubballi,1.0,Moderate,112,PM10
2019-03-01,Hubballi,1.0,Moderate,110,PM10
2019-03-02,Hubballi,1.0,Moderate,103,PM10
2019-03-03,Hubballi,1.0,Moderate,103,PM10
2019-03-04,Hubballi,1.0,Satisfactory,92,PM10
2019-03-05,Hubballi,1.0,Satisfactory,88,PM10
2019-03-06,Hubballi,1.0,Moderate,164,PM10
2019-03-07,Hubballi,1.0,Moderate,136,PM10
2019-03-08,Hubballi,1.0,Moderate,138,PM10
2019-03-09,Hubballi,1.0,Moderate,118,PM10
2019-03-10,Hubballi,1.0,Moderate,116,PM10
2019-03-11,Hubballi,1.0,Moderate,118,PM10
2019-03-13,Hubballi,1.0,Moderate,121,PM10
2019-03-17,Hubballi,1.0,Moderate,107,PM10
2019-03-18,Hubballi,1.0,Moderate,116,PM10
2019-05-09,Hubballi,1.0,Satisfactory,73,PM10
2019-05-10,Hubballi,1.0,Satisfactory,68,PM10
2019-05-11,Hubballi,1.0,Satisfactory,66,PM10
2019-05-12,Hubballi,1.0,Satisfactory,69,PM10
2019-05-13,Hubballi,1.0,Satisfactory,80,PM10
2019-05-16,Hubballi,1.0,Satisfactory,79,PM10
2019-05-17,Hubballi,1.0,Satisfactory,90,PM10
2019-05-18,Hubballi,1.0,Satisfactory,96,PM10
2019-05-22,Hubballi,1.0,Satisfactory,75,CO
2019-05-23,Hubballi,1.0,Satisfactory,79,PM10
2019-05-25,Hubballi,1.0,Satisfactory,77,PM10
2019-05-26,Hubballi,1.0,Satisfactory,83,PM10
2019-06-02,Hubballi,1.0,Satisfactory,79,PM10
2019-06-03,Hubballi,1.0,Satisfactory,65,PM10
2019-06-04,Hubballi,1.0,Satisfactory,68,PM10
2019-06-09,Hubballi,1.0,Satisfactory,56,PM10
2019-06-10,Hubballi,1.0,Good,36,PM10
2019-06-13,Hubballi,1.0,Good,33,PM10
2019-06-14,Hubballi,1.0,Good,47,PM10
2019-06-15,Hubballi,1.0,Satisfactory,71,PM10
2019-06-17,Hubballi,1.0,Satisfactory,68,PM10
2019-07-11,Hubballi,1.0,Good,27,SO2
2019-07-14,Hubballi,1.0,Satisfactory,72,PM10
2019-07-18,Hubballi,1.0,Satisfactory,59,PM10
2019-07-19,Hubballi,1.0,Satisfactory,67,PM10
2019-07-20,Hubballi,1.0,Satisfactory,64,PM10
2019-07-21,Hubballi,1.0,Good,38,PM10
2019-07-22,Hubballi,1.0,Good,26,SO2
2019-08-26,Hubballi,1.0,Poor,213,PM2.5
2019-08-27,Hubballi,1.0,Poor,255,PM2.5
2019-08-28,Hubballi,1.0,Moderate,152,PM2.5
2019-08-29,Hubballi,1.0,Satisfactory,80,PM10
2019-08-30,Hubballi,1.0,Satisfactory,89,PM10
2019-08-31,Hubballi,1.0,Satisfactory,85,PM10
2019-09-01,Hubballi,1.0,Good,43,PM10
2019-09-03,Hubballi,1.0,Good,39,PM10
2019-09-04,Hubballi,1.0,Good,47,PM10
2019-09-05,Hubballi,1.0,Good,33,SO2
2019-09-06,Hubballi,1.0,Good,33,SO2
2019-09-07,Hubballi,1.0,Good,34,PM10
2019-09-09,Hubballi,1.0,Satisfactory,60,PM10
2019-09-10,Hubballi,1.0,Satisfactory,56,PM10
2019-09-11,Hubballi,1.0,Moderate,112,PM10
2019-09-12,Hubballi,1.0,Moderate,129,PM10
2019-09-13,Hubballi,1.0,Moderate,111,PM10
2019-09-14,Hubballi,1.0,Moderate,132,PM10
2019-09-15,Hubballi,1.0,Moderate,118,PM10
2019-09-16,Hubballi,1.0,Satisfactory,95,PM10
2019-09-17,Hubballi,1.0,Satisfactory,96,PM10
2019-09-18,Hubballi,1.0,Satisfactory,92,PM10
2019-09-20,Hubballi,1.0,Satisfactory,70,PM10
2019-09-21,Hubballi,1.0,Moderate,110,PM10
2019-09-22,Hubballi,1.0,Satisfactory,90,PM10
2019-09-23,Hubballi,1.0,Satisfactory,93,PM10
2019-09-24,Hubballi,1.0,Satisfactory,83,PM10
2019-09-26,Hubballi,1.0,Good,46,PM10
2019-09-27,Hubballi,1.0,Satisfactory,62,PM10
2019-10-01,Hubballi,1.0,Moderate,116,PM10
2019-10-02,Hubballi,1.0,Satisfactory,88,PM10
2019-10-03,Hubballi,1.0,Good,49,PM10
2019-10-04,Hubballi,1.0,Satisfactory,61,PM10
2019-10-05,Hubballi,1.0,Satisfactory,65,PM10
2019-10-06,Hubballi,1.0,Good,33,SO2
2019-10-07,Hubballi,1.0,Satisfactory,85,PM10
2019-10-10,Hubballi,1.0,Good,41,PM10
2019-10-11,Hubballi,1.0,Satisfactory,52,PM10
2019-10-12,Hubballi,1.0,Satisfactory,96,PM10
2019-10-13,Hubballi,1.0,Satisfactory,79,PM10
2019-10-14,Hubballi,1.0,Satisfactory,53,PM10
2019-10-15,Hubballi,1.0,Good,35,SO2
2019-10-16,Hubballi,1.0,Satisfactory,81,PM10
2019-10-17,Hubballi,1.0,Satisfactory,75,PM10
2019-10-18,Hubballi,1.0,Satisfactory,59,PM10
2019-10-20,Hubballi,1.0,Satisfactory,64,PM10
2019-10-22,Hubballi,1.0,Good,35,NO2
2019-10-23,Hubballi,1.0,Good,48,PM10
2019-10-24,Hubballi,1.0,Good,42,PM10
2019-10-25,Hubballi,1.0,Good,37,SO2
2019-10-30,Hubballi,1.0,Satisfactory,99,PM10
2019-11-01,Hubballi,1.0,Satisfactory,64,PM10
2019-11-02,Hubballi,1.0,Moderate,128,PM10
2019-11-06,Hubballi,1.0,Moderate,132,PM10
2019-11-07,Hubballi,1.0,Satisfactory,91,PM10
2019-11-08,Hubballi,1.0,Moderate,114,PM10
2019-11-09,Hubballi,1.0,Moderate,101,PM10
2019-11-10,Hubballi,1.0,Moderate,117,PM10
2019-11-11,Hubballi,1.0,Moderate,124,PM10
2019-11-12,Hubballi,1.0,Moderate,121,PM10
2019-11-13,Hubballi,1.0,Moderate,133,PM10
2019-11-14,Hubballi,1.0,Moderate,117,PM10
2019-11-15,Hubballi,1.0,Moderate,144,PM10
2019-11-16,Hubballi,1.0,Moderate,133,PM10
2019-11-17,Hubballi,1.0,Moderate,103,PM10
2019-11-18,Hubballi,1.0,Moderate,112,PM10
2019-11-19,Hubballi,1.0,Moderate,116,PM2.5
2019-11-20,Hubballi,1.0,Satisfactory,91,PM10
2019-11-23,Hubballi,1.0,Moderate,102,PM10
2019-11-27,Hubballi,1.0,Satisfactory,91,PM10
2019-11-28,Hubballi,1.0,Satisfactory,73,PM10
2019-11-29,Hubballi,1.0,Satisfactory,62,PM10
2019-11-30,Hubballi,1.0,Satisfactory,59,PM10
2019-12-01,Hubballi,1.0,Good,46,PM10
2019-12-02,Hubballi,1.0,Good,32,PM10
2019-12-03,Hubballi,1.0,Good,34,PM10
2019-12-04,Hubballi,1.0,Satisfactory,58,PM10
2019-12-05,Hubballi,1.0,Moderate,104,PM10
2019-12-06,Hubballi,1.0,Moderate,107,PM10
2019-12-07,Hubballi,1.0,Moderate,103,PM10
2019-12-08,Hubballi,1.0,Satisfactory,65,PM10
2019-12-09,Hubballi,1.0,Satisfactory,53,PM10
2019-12-10,Hubballi,1.0,Satisfactory,67,PM10
2019-12-11,Hubballi,1.0,Satisfactory,65,PM10
2019-12-12,Hubballi,1.0,Satisfactory,72,PM10
2019-12-13,Hubballi,1.0,Satisfactory,79,PM10
2019-12-15,Hubballi,1.0,Satisfactory,63,PM10
2019-12-16,Hubballi,1.0,Satisfactory,72,PM10
2019-12-17,Hubballi,1.0,Satisfactory,71,PM10
2019-12-18,Hubballi,1.0,Satisfactory,78,PM10
2019-12-19,Hubballi,1.0,Satisfactory,84,PM10
2019-12-20,Hubballi,1.0,Satisfactory,85,PM10
2019-12-21,Hubballi,1.0,Satisfactory,99,PM10
2019-12-22,Hubballi,1.0,Satisfactory,96,PM10
2019-12-23,Hubballi,1.0,Satisfactory,89,PM10
2019-12-24,Hubballi,1.0,Satisfactory,96,PM10
2019-12-25,Hubballi,1.0,Moderate,102,PM10
2019-12-26,Hubballi,1.0,Satisfactory,83,PM10
2019-12-27,Hubballi,1.0,Satisfactory,97,PM10
2019-12-28,Hubballi,1.0,Satisfactory,88,PM10
2019-12-29,Hubballi,1.0,Satisfactory,72,PM10
2019-12-30,Hubballi,1.0,Satisfactory,92,PM10
2019-12-31,Hubballi,1.0,Satisfactory,85,PM10
2020-01-01,Hubballi,1.0,Satisfactory,88,PM10
2020-01-02,Hubballi,1.0,Moderate,125,PM10
2020-01-03,Hubballi,1.0,Satisfactory,91,PM10
2020-01-04,Hubballi,1.0,Moderate,101,PM10
2020-01-05,Hubballi,1.0,Moderate,108,PM10
2020-01-06,Hubballi,1.0,Satisfactory,85,PM10
2020-01-07,Hubballi,1.0,Satisfactory,70,PM10
2020-01-08,Hubballi,1.0,Satisfactory,67,PM10
2020-01-09,Hubballi,1.0,Satisfactory,86,PM10
2020-01-10,Hubballi,1.0,Satisfactory,92,PM10
2020-01-11,Hubballi,1.0,Satisfactory,80,PM10
2020-01-12,Hubballi,1.0,Satisfactory,80,PM10
2020-01-13,Hubballi,1.0,Satisfactory,94,PM10
2020-01-14,Hubballi,1.0,Moderate,113,PM10
2020-01-15,Hubballi,1.0,Moderate,106,PM10
2020-01-16,Hubballi,1.0,Moderate,115,PM10
2020-01-17,Hubballi,1.0,Satisfactory,77,PM10
2020-01-19,Hubballi,1.0,Satisfactory,91,PM10
2020-01-20,Hubballi,1.0,Satisfactory,98,PM10
2020-01-21,Hubballi,1.0,Satisfactory,96,PM10
2020-01-22,Hubballi,1.0,Satisfactory,67,PM10
2020-01-23,Hubballi,1.0,Satisfactory,70,PM10
2020-01-24,Hubballi,1.0,Satisfactory,75,PM10
2020-02-13,Hubballi,1.0,Satisfactory,67,PM10
2020-02-14,Hubballi,1.0,Satisfactory,78,PM10
2020-02-15,Hubballi,1.0,Moderate,114,PM10
2020-02-16,Hubballi,1.0,Moderate,121,PM10
2020-02-17,Hubballi,1.0,Satisfactory,93,PM10
2020-02-19,Hubballi,1.0,Moderate,102,PM10
2020-02-20,Hubballi,1.0,Moderate,115,PM10
2020-02-21,Hubballi,1.0,Satisfactory,80,PM10
2020-02-22,Hubballi,1.0,Satisfactory,74,PM10
2020-02-23,Hubballi,1.0,Satisfactory,62,PM10
2020-02-24,Hubballi,1.0,Satisfactory,77,PM10
2020-02-25,Hubballi,1.0,Moderate,109,PM10
2020-02-27,Hubballi,1.0,Satisfactory,86,PM10
2020-02-28,Hubballi,1.0,Satisfactory,95,PM10
2020-02-29,Hubballi,1.0,Moderate,109,PM10
2020-03-01,Hubballi,1.0,Satisfactory,93,PM10
2020-03-02,Hubballi,1.0,Satisfactory,67,PM10
2020-03-03,Hubballi,1.0,Satisfactory,95,PM10
2020-03-04,Hubballi,1.0,Satisfactory,82,PM10
2020-03-05,Hubballi,1.0,Satisfactory,88,PM10
2020-03-06,Hubballi,1.0,Satisfactory,79,PM10
2020-03-07,Hubballi,1.0,Satisfactory,75,PM10
2020-03-08,Hubballi,1.0,Satisfactory,84,PM10
2020-03-09,Hubballi,1.0,Satisfactory,82,PM10
2020-03-10,Hubballi,1.0,Satisfactory,84,PM10
2020-03-11,Hubballi,1.0,Satisfactory,74,PM10
2020-03-12,Hubballi,1.0,Satisfactory,71,PM10
2020-03-13,Hubballi,1.0,Satisfactory,69,PM10
2020-03-14,Hubballi,1.0,Satisfactory,63,PM10
2020-03-15,Hubballi,1.0,Satisfactory,76,PM10
2020-03-16,Hubballi,1.0,Moderate,108,PM10
2020-03-17,Hubballi,1.0,Satisfactory,85,PM10
2020-03-18,Hubballi,1.0,Satisfactory,80,PM10
2020-03-19,Hubballi,1.0,Satisfactory,70,PM10
2020-03-20,Hubballi,1.0,Satisfactory,73,PM10
2020-03-21,Hubballi,1.0,Satisfactory,75,PM10
2020-03-22,Hubballi,1.0,Satisfactory,71,PM10
2020-03-23,Hubballi,1.0,Satisfactory,72,PM10
2020-03-24,Hubballi,1.0,Satisfactory,68,PM10
2020-03-25,Hubballi,1.0,Satisfactory,54,PM10
2020-03-26,Hubballi,1.0,Good,47,PM10
2020-05-08,Hubballi,1.0,Satisfactory,51,PM10
2020-05-09,Hubballi,1.0,Satisfactory,54,PM10
2020-05-10,Hubballi,1.0,Satisfactory,54,PM10
2020-05-11,Hubballi,1.0,Good,30,PM10
2020-05-12,Hubballi,1.0,Good,38,PM10
2020-05-13,Hubballi,1.0,Good,45,PM10
2020-05-14,Hubballi,1.0,Good,42,PM10
2020-05-15,Hubballi,1.0,Good,25,PM10
2020-05-16,Hubballi,1.0,Good,37,PM10
2020-05-17,Hubballi,1.0,Satisfactory,76,CO
2020-05-18,Hubballi,1.0,Poor,202,NO2
2020-05-19,Hubballi,1.0,Satisfactory,80,CO
2020-05-22,Hubballi,1.0,Satisfactory,56,CO
2020-05-23,Hubballi,1.0,Satisfactory,60,PM10
2020-05-24,Hubballi,1.0,Satisfactory,55,PM10
2020-05-25,Hubballi,1.0,Good,46,PM10
2020-05-26,Hubballi,1.0,Satisfactory,52,PM10
2020-05-27,Hubballi,1.0,Satisfactory,62,PM10
2020-05-28,Hubballi,1.0,Satisfactory,51,PM10
2020-05-29,Hubballi,1.0,Good,48,PM10
2020-05-30,Hubballi,1.0,Good,34,PM10
2020-05-31,Hubballi,1.0,Good,50,PM10
2020-06-01,Hubballi,1.0,Good,18,NO2
2020-06-02,Hubballi,1.0,Good,25,NO2
2020-06-03,Hubballi,1.0,Good,19,PM10
2020-06-04,Hubballi,1.0,Good,19,NO2
2020-06-05,Hubballi,1.0,Satisfactory,52,PM10
2020-06-06,Hubballi,1.0,Satisfactory,52,PM10
2020-06-07,Hubballi,1.0,Good,46,PM10
2020-06-08,Hubballi,1.0,Good,44,PM10
2020-06-09,Hubballi,1.0,Good,49,PM10
2020-06-10,Hubballi,1.0,Good,44,PM10
2020-06-11,Hubballi,1.0,Good,32,PM10
2020-06-12,Hubballi,1.0,Good,21,PM10
2020-06-13,Hubballi,1.0,Satisfactory,99,O3
2020-06-14,Hubballi,1.0,Good,24,PM10
2020-06-15,Hubballi,1.0,Good,25,PM10
2020-06-16,Hubballi,1.0,Good,26,PM10
2020-06-17,Hubballi,1.0,Good,16,CO
2020-06-18,Hubballi,1.0,Good,27,PM10
2020-06-19,Hubballi,1.0,Good,36,PM10
2020-06-20,Hubballi,1.0,Good,45,PM10
2020-06-21,Hubballi,1.0,Good,43,PM10
2020-06-22,Hubballi,1.0,Good,39,PM10
2020-06-23,Hubballi,1.0,Good,46,PM10
2020-06-24,Hubballi,1.0,Good,45,PM10
2020-06-25,Hubballi,1.0,Good,35,O3
2020-06-26,Hubballi,1.0,Good,31,O3
2020-06-27,Hubballi,1.0,Good,28,O3
2020-06-28,Hubballi,1.0,Good,24,O3
2020-06-29,Hubballi,1.0,Good,24,O3
2020-06-30,Hubballi,1.0,Good,24,PM10
2020-07-01,Hubballi,1.0,Good,34,PM10
2020-07-03,Hubballi,1.0,Good,26,O3
2020-07-04,Hubballi,1.0,Good,22,PM10
2020-07-05,Hubballi,1.0,Good,19,PM10
2020-07-06,Hubballi,1.0,Good,27,PM10
2020-07-07,Hubballi,1.0,Good,22,PM10
2020-07-08,Hubballi,1.0,Good,14,NO2
2020-07-11,Hubballi,1.0,Good,28,PM10
2020-07-12,Hubballi,1.0,Good,19,PM10
2020-07-14,Hubballi,1.0,Good,30,PM10
2020-07-15,Hubballi,1.0,Good,15,PM10
2020-07-17,Hubballi,1.0,Good,14,O3
2020-07-18,Hubballi,1.0,Good,11,O3
2020-07-19,Hubballi,1.0,Good,19,PM10
2020-07-20,Hubballi,1.0,Good,23,PM10
2020-07-21,Hubballi,1.0,Good,19,PM10
2020-07-22,Hubballi,1.0,Good,19,PM10
2020-07-23,Hubballi,1.0,Good,26,PM10
2020-07-24,Hubballi,1.0,Good,38,PM10
2020-07-25,Hubballi,1.0,Good,21,PM10
2020-07-28,Hubballi,1.0,Good,30,PM10
2020-07-29,Hubballi,1.0,Good,43,PM10
2020-07-30,Hubballi,1.0,Good,24,PM10
2020-07-31,Hubballi,1.0,Good,35,PM10
2020-08-01,Hubballi,1.0,Good,29,PM10
2020-08-02,Hubballi,1.0,Good,11,NO2
2020-08-03,Hubballi,1.0,Good,14,CO
2020-08-05,Hubballi,1.0,Good,13,NO2
2020-08-06,Hubballi,1.0,Good,15,PM10
2020-08-07,Hubballi,1.0,Good,22,PM10
2020-08-08,Hubballi,1.0,Good,23,PM10
2020-08-09,Hubballi,1.0,Good,35,PM10
2020-08-10,Hubballi,1.0,Good,29,PM10
2020-08-11,Hubballi,1.0,Good,27,PM10
2020-08-15,Hubballi,1.0,Good,37,PM10
2020-08-16,Hubballi,1.0,Good,14,NO2
2020-08-17,Hubballi,1.0,Good,21,CO
2020-08-18,Hubballi,1.0,Good,30,PM10
2020-08-19,Hubballi,1.0,Good,30,PM10
2020-08-20,Hubballi,1.0,Satisfactory,51,PM10
2020-08-21,Hubballi,1.0,Good,24,PM10
2020-08-22,Hubballi,1.0,Good,23,PM10
2020-08-23,Hubballi,1.0,Good,27,PM10
2020-08-24,Hubballi,1.0,Good,31,PM10
2020-08-25,Hubballi,1.0,Good,50,PM10
2020-08-26,Hubballi,1.0,Satisfactory,62,PM10
2020-08-27,Hubballi,1.0,Satisfactory,67,PM10
2020-08-28,Hubballi,1.0,Good,49,PM10
2020-08-29,Hubballi,1.0,Good,42,PM10
2020-08-30,Hubballi,1.0,Good,32,PM10
2020-08-31,Hubballi,1.0,Good,21,PM10
2020-09-01,Hubballi,1.0,Good,50,PM10
2020-09-02,Hubballi,1.0,Good,40,PM10
2020-09-03,Hubballi,1.0,Good,36,PM10
2020-09-04,Hubballi,1.0,Good,45,PM10
2020-09-05,Hubballi,1.0,Satisfactory,53,PM10
2020-09-06,Hubballi,1.0,Satisfactory,64,PM10
2020-09-07,Hubballi,1.0,Good,44,PM10
2020-09-08,Hubballi,1.0,Good,29,PM10
2020-09-09,Hubballi,1.0,Good,29,PM10
2020-09-10,Hubballi,1.0,Good,30,PM10
2020-09-12,Hubballi,1.0,Good,24,PM10
2020-09-13,Hubballi,1.0,Good,25,NO2
2020-09-14,Hubballi,1.0,Good,39,PM10
2020-09-15,Hubballi,1.0,Good,46,PM10
2020-09-16,Hubballi,1.0,Good,35,PM10
2020-09-17,Hubballi,1.0,Good,30,PM10
2020-09-18,Hubballi,1.0,Good,28,PM10
2020-09-19,Hubballi,1.0,Good,33,PM10
2020-09-20,Hubballi,1.0,Good,22,NO2
2020-09-23,Hubballi,1.0,Good,29,PM10
2020-09-24,Hubballi,1.0,Good,28,PM10
2020-09-26,Hubballi,1.0,Good,33,CO
2020-09-27,Hubballi,1.0,Good,36,PM10
2020-09-28,Hubballi,1.0,Good,46,PM10
2020-09-29,Hubballi,1.0,Satisfactory,65,PM10
2020-09-30,Hubballi,1.0,Satisfactory,66,PM10
2020-10-01,Hubballi,1.0,Satisfactory,52,PM10
2020-10-02,Hubballi,1.0,Satisfactory,71,PM10
2020-10-03,Hubballi,1.0,Good,50,PM10
2020-10-04,Hubballi,1.0,Good,46,PM10
2020-10-05,Hubballi,1.0,Good,42,PM10
2020-10-06,Hubballi,1.0,Good,40,PM10
2020-10-07,Hubballi,1.0,Satisfactory,80,PM10
2020-10-08,Hubballi,1.0,Satisfactory,94,PM10
2020-10-09,Hubballi,1.0,Moderate,113,PM10
2020-10-10,Hubballi,1.0,Satisfactory,64,PM10
2020-10-11,Hubballi,1.0,Good,48,PM10
2020-10-12,Hubballi,1.0,Good,37,CO
2020-10-13,Hubballi,1.0,Good,35,CO
2020-10-14,Hubballi,1.0,Good,50,PM10
2020-10-15,Hubballi,1.0,Good,48,PM10
2020-10-16,Hubballi,1.0,Satisfactory,56,PM10
2020-10-17,Hubballi,1.0,Moderate,103,PM10
2020-10-18,Hubballi,1.0,Satisfactory,88,PM10
2020-10-19,Hubballi,1.0,Satisfactory,67,PM10
2020-10-20,Hubballi,1.0,Satisfactory,64,PM10
2020-10-21,Hubballi,1.0,Good,36,NO2
2020-10-22,Hubballi,1.0,Satisfactory,87,PM10
2020-10-23,Hubballi,1.0,Satisfactory,91,PM10
2020-10-24,Hubballi,1.0,Satisfactory,63,PM10
2020-10-25,Hubballi,1.0,Satisfactory,55,PM10
2020-10-26,Hubballi,1.0,Satisfactory,62,PM10
2020-10-27,Hubballi,1.0,Moderate,102,PM10
2020-10-28,Hubballi,1.0,Moderate,112,PM10
2020-10-29,Hubballi,1.0,Moderate,107,PM10
2020-10-30,Hubballi,1.0,Moderate,106,PM10
2020-10-31,Hubballi,1.0,Moderate,124,PM10
2020-11-01,Hubballi,1.0,Moderate,141,PM2.5
2020-11-02,Hubballi,1.0,Moderate,115,PM2.5
2020-11-05,Hubballi,1.0,Moderate,125,PM10
2020-11-06,Hubballi,1.0,Moderate,105,PM10
2020-11-07,Hubballi,1.0,Satisfactory,95,PM10
2020-11-08,Hubballi,1.0,Moderate,177,PM10
2020-11-09,Hubballi,1.0,Moderate,183,PM10
2020-11-10,Hubballi,1.0,Moderate,115,PM10
2020-11-11,Hubballi,1.0,Moderate,111,PM10
2020-11-12,Hubballi,1.0,Moderate,105,PM10
2020-11-13,Hubballi,1.0,Satisfactory,61,PM10
2020-11-14,Hubballi,1.0,Satisfactory,64,PM10
2020-11-15,Hubballi,1.0,Satisfactory,74,PM10
2020-11-16,Hubballi,1.0,Satisfactory,51,PM10
2020-11-17,Hubballi,1.0,Good,41,PM10
2020-11-18,Hubballi,1.0,Satisfactory,62,PM10
2020-11-19,Hubballi,1.0,Satisfactory,70,PM10
2020-11-20,Hubballi,1.0,Satisfactory,73,PM10
2020-11-21,Hubballi,1.0,Satisfactory,97,PM10
2020-11-22,Hubballi,1.0,Satisfactory,87,PM10
2020-11-23,Hubballi,1.0,Satisfactory,89,PM10
2020-11-24,Hubballi,1.0,Moderate,101,PM10
2020-11-25,Hubballi,1.0,Moderate,109,PM10
2020-11-26,Hubballi,1.0,Satisfactory,75,PM10
2020-11-27,Hubballi,1.0,Satisfactory,63,PM10
2020-11-28,Hubballi,1.0,Good,39,PM10
2020-11-29,Hubballi,1.0,Good,40,PM10
2020-11-30,Hubballi,1.0,Satisfactory,52,PM10
2020-12-01,Hubballi,1.0,Satisfactory,88,PM10
2020-12-02,Hubballi,1.0,Satisfactory,92,PM10
2020-12-03,Hubballi,1.0,Moderate,104,PM10
2020-12-04,Hubballi,1.0,Satisfactory,89,PM10
2020-12-05,Hubballi,1.0,Satisfactory,92,PM10
2020-12-06,Hubballi,1.0,Satisfactory,81,PM10
2020-12-07,Hubballi,1.0,Satisfactory,92,PM10
2020-12-08,Hubballi,1.0,Satisfactory,69,PM10
2020-12-09,Hubballi,1.0,Satisfactory,57,PM10
2020-12-10,Hubballi,1.0,Satisfactory,67,PM10
2020-12-11,Hubballi,1.0,Satisfactory,83,PM10
2020-12-12,Hubballi,1.0,Satisfactory,90,PM10
2020-12-13,Hubballi,1.0,Moderate,103,PM10
2020-12-14,Hubballi,1.0,Moderate,110,PM10
2020-12-15,Hubballi,1.0,Moderate,105,PM10
2020-12-16,Hubballi,1.0,Moderate,103,PM10
2020-12-17,Hubballi,1.0,Satisfactory,91,PM10
2020-12-18,Hubballi,1.0,Moderate,110,PM2.5
2020-12-19,Hubballi,1.0,Moderate,117,NO2
2020-12-20,Hubballi,1.0,Moderate,144,PM2.5
2020-12-21,Hubballi,1.0,Moderate,157,PM2.5
2020-12-22,Hubballi,1.0,Moderate,132,PM2.5
2020-12-23,Hubballi,1.0,Moderate,113,PM2.5
2020-12-24,Hubballi,1.0,Moderate,123,PM2.5
2020-12-25,Hubballi,1.0,Moderate,107,PM10
2020-12-26,Hubballi,1.0,Moderate,126,PM2.5
2020-12-27,Hubballi,1.0,Moderate,160,PM2.5
2020-12-28,Hubballi,1.0,Moderate,155,PM2.5
2020-12-29,Hubballi,1.0,Moderate,143,PM2.5
2020-12-30,Hubballi,1.0,Moderate,129,PM2.5
2020-12-31,Hubballi,1.0,Moderate,103,PM10
2021-01-01,Hubballi,1.0,Satisfactory,99,PM10
2021-01-02,Hubballi,1.0,Moderate,120,PM2.5
2021-01-03,Hubballi,1.0,Satisfactory,90,PM2.5
2021-01-04,Hubballi,1.0,Satisfactory,80,PM2.5
2021-01-05,Hubballi,1.0,Satisfactory,66,NO2
2021-01-06,Hubballi,1.0,Satisfactory,76,PM10
2021-01-07,Hubballi,1.0,Satisfactory,56,PM10
2021-01-08,Hubballi,1.0,Satisfactory,62,PM10
2021-01-09,Hubballi,1.0,Good,38,CO
2021-01-10,Hubballi,1.0,Satisfactory,63,PM10
2021-01-11,Hubballi,1.0,Satisfactory,70,PM10
2021-01-12,Hubballi,1.0,Satisfactory,87,PM10
2021-01-13,Hubballi,1.0,Satisfactory,100,PM10
2021-01-14,Hubballi,1.0,Satisfactory,89,PM10
2021-01-15,Hubballi,1.0,Satisfactory,86,PM10
2021-01-16,Hubballi,1.0,Satisfactory,94,PM10
2021-01-17,Hubballi,1.0,Moderate,103,PM10
2021-01-18,Hubballi,1.0,Satisfactory,86,PM10
2021-01-19,Hubballi,1.0,Satisfactory,98,PM10
2021-01-20,Hubballi,1.0,Satisfactory,92,PM10
2021-01-21,Hubballi,1.0,Satisfactory,100,PM10
2021-01-22,Hubballi,1.0,Moderate,125,PM2.5
2021-01-23,Hubballi,1.0,Moderate,172,PM2.5
2021-01-25,Hubballi,1.0,Moderate,114,PM10
2021-01-26,Hubballi,1.0,Moderate,160,PM2.5
2021-01-27,Hubballi,1.0,Moderate,121,PM2.5